Printer-friendly version

IAU Minor Planet Center

Minor Planet Center

(44) Nysa

Orbital Elements

The following orbital elements are taken from MPC 24548:
   (44) Nysa
Epoch 2000 Feb. 26.0 TT = JDT 2451600.5  (M-c)          Bowell
M  54.98767              (2000.0)            P               Q
n   0.26119131     Peri.  342.57335     -0.41035506     -0.91064754
a   2.4238007      Node   131.62444     +0.84417970     -0.39935734
e   0.1480873      Incl.    3.70223     +0.34491936     -0.10599423
P   3.77           H    7.03          G   0.46
From 732 observations at 52 oppositions, 1870-1993, mean residual 0".61.
An explanation of the orbital elements is available.

These orbital elements are also available in forms suitable for loading into a number of popular planetarium-type software programs.


Ephemeris

The following ephemeris is at intervals of five days. A daily ephemeris covering the same time interval is also available.

Date    TT    R. A. (2000) Decl.     Delta      r     Elong.  Phase     V
 
2000 01 07    13 02.33   -03 54.4    1.949    2.185    90.1    26.7    11.0
2000 01 12    13 07.91   -04 17.7    1.895    2.192    93.8    26.6    10.9
2000 01 17    13 13.02   -04 37.3    1.841    2.199    97.6    26.3    10.9
2000 01 22    13 17.62   -04 53.1    1.788    2.206   101.5    25.9    10.8
2000 01 27    13 21.67   -05 04.8    1.735    2.213   105.6    25.4    10.7
2000 02 01    13 25.11   -05 12.2    1.684    2.220   109.8    24.7    10.7
2000 02 06    13 27.90   -05 15.1    1.634    2.228   114.2    23.8    10.6
2000 02 11    13 30.00   -05 13.5    1.586    2.235   118.7    22.8    10.5
2000 02 16    13 31.37   -05 07.3    1.541    2.243   123.5    21.6    10.4
2000 02 21    13 31.98   -04 56.4    1.498    2.250   128.4    20.1    10.3
2000 02 26    13 31.82   -04 40.9    1.459    2.258   133.5    18.5    10.2
2000 03 02    13 30.87   -04 21.1    1.424    2.266   138.9    16.7    10.2
2000 03 07    13 29.16   -03 57.2    1.393    2.274   144.3    14.7    10.1
2000 03 12    13 26.72   -03 29.7    1.367    2.282   150.0    12.6    10.0
2000 03 17    13 23.63   -02 59.2    1.346    2.290   155.7    10.3     9.9
2000 03 22    13 19.99   -02 26.8    1.331    2.298   161.5     7.9     9.8
2000 03 27    13 15.91   -01 53.1    1.322    2.306   167.1     5.5     9.7
2000 04 01    13 11.53   -01 19.4    1.320    2.314   172.1     3.4     9.7
2000 04 06    13 07.01   -00 46.7    1.325    2.322   174.1     2.5     9.6
2000 04 11    13 02.51   -00 16.1    1.336    2.330   170.9     3.9     9.7
2000 04 16    12 58.19   +00 11.4    1.353    2.339   165.7     6.1     9.8
2000 04 21    12 54.19   +00 35.1    1.377    2.347   160.2     8.3     9.9
2000 04 26    12 50.63   +00 54.3    1.406    2.355   154.6    10.6    10.1
2000 05 01    12 47.60   +01 08.6    1.442    2.363   149.1    12.7    10.2
2000 05 06    12 45.17   +01 17.9    1.482    2.372   143.7    14.6    10.3
2000 05 11    12 43.40   +01 22.1    1.527    2.380   138.5    16.3    10.4
2000 05 16    12 42.30   +01 21.2    1.577    2.388   133.5    17.9    10.5
2000 05 21    12 41.86   +01 15.6    1.630    2.397   128.7    19.3    10.6
2000 05 26    12 42.08   +01 05.5    1.687    2.405   124.0    20.4    10.7
2000 05 31    12 42.93   +00 51.1    1.746    2.413   119.5    21.4    10.8
2000 06 05    12 44.38   +00 32.9    1.808    2.421   115.2    22.3    10.9
2000 06 10    12 46.41   +00 11.2    1.872    2.429   111.1    22.9    11.0
2000 06 15    12 48.96   -00 13.7    1.937    2.438   107.1    23.5    11.1
2000 06 20    12 52.01   -00 41.5    2.004    2.446   103.2    23.9    11.2
2000 06 25    12 55.51   -01 11.7    2.072    2.454    99.5    24.1    11.3
2000 06 30    12 59.43   -01 44.2    2.141    2.462    95.8    24.3    11.4
2000 07 05    13 03.74   -02 18.8    2.211    2.470    92.3    24.3    11.5

Back to Bright Minor Planets

Astronomical Headlines Index


Valid HTML 4.01!